Change the Weather History Date:

Monday, March 24, 2014

  Actual Average (KAQP) Record (KAQP)
Temperature  
Mean Temperature 30 °F -  
Max Temperature 37 °F 39 °F 73 °F (2012)
Min Temperature 24 °F 21 °F -2 °F (2011)
Degree Days  
Heating Degree Days 34    
Moisture  
Dew Point 18 °F    
Average Humidity 63    
Maximum Humidity 100    
Minimum Humidity 35    
Precipitation  
Precipitation 0.00 in - - ()
Sea Level Pressure  
Sea Level Pressure 30.23 in    
Wind  
Wind Speed 9 mph (NW)    
Max Wind Speed 24 mph    
Max Gust Speed 33 mph    
Visibility 10 miles    
Events      
Averages and records for this station are not official NWS values.
T = Trace of Precipitation, MM = Missing Value Source: NWS Daily Summary

Daily Weather History Graph

Daily Weather History Graph

Search for Another Location

Airport or City:

Trip Planner

Search our weather history database for the weather conditions in past years. The results will help you decide how hot, cold, wet, or windy it might be!

Date:

Astronomy

Mar. 24, 2014 Rise Set
Actual Time 7:20 AM CDT 7:42 PM CDT
Civil Twilight 6:50 AM CDT 8:11 PM CDT
Nautical Twilight 6:16 AM CDT 8:46 PM CDT
Astronomical Twilight 5:40 AM CDT 9:22 PM CDT
Moon 3:05 AM CDT (3/24) 12:54 PM CDT (3/24)
Length of Visible Light 13h 20m
Length of Day
12h 22m
Last Quarter, 43% of the Moon is Illuminated
Mar 24
Last Quarter
Mar 30
New
Apr 7
First Quarter
Apr 15
Full
Apr 22
Last Quarter

Hourly Weather History & Observations

Time (CDT) Temp. Windchill Dew Point Humidity Pressure Visibility Wind Dir Wind Speed Gust Speed Precip Events Conditions
12:14 AM 30.2 °F 26.7 °F 21.2 °F 69% 30.32 in 10.0 mi SSE 3.5 mph - N/A   Overcast
12:34 AM 30.2 °F 26.7 °F 21.2 °F 69% 30.32 in 10.0 mi SSE 3.5 mph - N/A   Overcast
12:53 AM 28.4 °F - 21.2 °F 74% 30.31 in 10.0 mi Calm Calm - N/A   Mostly Cloudy
1:13 AM 28.4 °F 21.2 °F 21.2 °F 74% 30.31 in 10.0 mi ENE 6.9 mph - N/A   Scattered Clouds
1:34 AM 28.4 °F 22.2 °F 21.2 °F 74% 30.30 in 10.0 mi East 5.8 mph - N/A   Scattered Clouds
1:53 AM 28.4 °F 20.4 °F 21.2 °F 74% 30.29 in 10.0 mi SSE 8.1 mph - N/A   Scattered Clouds
2:13 AM 26.6 °F 19.1 °F 21.2 °F 80% 30.29 in 10.0 mi SSE 6.9 mph - N/A   Clear
2:34 AM 28.4 °F 19.7 °F 21.2 °F 74% 30.28 in 10.0 mi South 9.2 mph - N/A   Clear
2:53 AM 28.4 °F 19.7 °F 21.2 °F 74% 30.27 in 10.0 mi South 9.2 mph - N/A   Clear
3:13 AM 28.4 °F 19.7 °F 21.2 °F 74% 30.26 in 10.0 mi South 9.2 mph - N/A   Clear
3:33 AM 28.4 °F 19.7 °F 21.2 °F 74% 30.26 in 10.0 mi South 9.2 mph - N/A   Clear
3:53 AM 26.6 °F 18.2 °F 21.2 °F 80% 30.26 in 10.0 mi South 8.1 mph - N/A   Clear
4:14 AM 26.6 °F 19.1 °F 23.0 °F 86% 30.27 in 10.0 mi SSW 6.9 mph - N/A   Clear
4:33 AM 26.6 °F 20.0 °F 23.0 °F 86% 30.26 in 10.0 mi SSW 5.8 mph - N/A   Clear
4:53 AM 26.6 °F 20.0 °F 21.2 °F 80% 30.26 in 10.0 mi SSW 5.8 mph - N/A   Clear
5:14 AM 24.8 °F 19.1 °F 21.2 °F 86% 30.25 in 10.0 mi SW 4.6 mph - N/A   Clear
5:33 AM 24.8 °F 19.1 °F 21.2 °F 86% 30.26 in 10.0 mi SW 4.6 mph - N/A   Clear
5:53 AM 24.8 °F 20.5 °F 21.2 °F 86% 30.26 in 10.0 mi WSW 3.5 mph - N/A   Clear
6:14 AM 24.8 °F 20.5 °F 21.2 °F 86% 30.26 in 10.0 mi WSW 3.5 mph - N/A   Clear
6:33 AM 24.8 °F 20.5 °F 21.2 °F 86% 30.25 in 10.0 mi SW 3.5 mph - N/A   Clear
6:53 AM 26.6 °F 22.6 °F 24.8 °F 93% 30.25 in 10.0 mi SW 3.5 mph - N/A   Mostly Cloudy
7:14 AM 26.6 °F - 24.8 °F 93% 30.25 in 10.0 mi Calm Calm - N/A   Mostly Cloudy
7:34 AM 24.8 °F - 24.8 °F 100% 30.25 in 10.0 mi Calm Calm - N/A   Scattered Clouds
7:53 AM 26.6 °F - 23.0 °F 86% 30.26 in 10.0 mi Calm Calm - N/A   Mostly Cloudy
8:14 AM 26.6 °F 21.2 °F 24.8 °F 93% 30.26 in 10.0 mi WNW 4.6 mph - N/A   Overcast
8:33 AM 28.4 °F 21.2 °F 24.8 °F 86% 30.25 in 10.0 mi WNW 6.9 mph - N/A   Overcast
8:54 AM 28.4 °F 22.2 °F 24.8 °F 86% 30.26 in 10.0 mi West 5.8 mph - N/A   Mostly Cloudy
9:14 AM 28.4 °F 19.7 °F 24.8 °F 86% 30.26 in 10.0 mi WNW 9.2 mph - N/A   Scattered Clouds
9:33 AM 30.2 °F 20.2 °F 24.8 °F 80% 30.26 in 10.0 mi NW 12.7 mph - N/A   Scattered Clouds
9:54 AM 30.2 °F 19.8 °F 24.8 °F 80% 30.26 in 10.0 mi NW 13.8 mph - N/A   Mostly Cloudy
10:14 AM 32.0 °F 21.6 °F 23.0 °F 69% 30.26 in 10.0 mi NW 15.0 mph 20.7 mph N/A   Scattered Clouds
10:33 AM 33.8 °F 23.5 °F 19.4 °F 56% 30.26 in 10.0 mi NNW 16.1 mph 21.9 mph N/A   Clear
10:54 AM 33.8 °F 22.8 °F 19.4 °F 56% 30.25 in 10.0 mi NNW 18.4 mph 23.0 mph N/A   Clear
11:14 AM 33.8 °F 22.5 °F 17.6 °F 52% 30.26 in 10.0 mi NNW 19.6 mph - N/A   Clear
11:33 AM 35.6 °F 26.2 °F 17.6 °F 48% 30.25 in 10.0 mi NNW 15.0 mph 19.6 mph N/A   Clear
11:54 AM 33.8 °F 24.3 °F 15.8 °F 48% 30.25 in 10.0 mi NNW 13.8 mph 20.7 mph N/A   Scattered Clouds
12:14 PM 35.6 °F 25.5 °F 17.6 °F 48% 30.24 in 10.0 mi NW 17.3 mph - N/A   Scattered Clouds
12:33 PM 37.4 °F 28.2 °F 15.8 °F 41% 30.24 in 10.0 mi NNW 16.1 mph - N/A   Scattered Clouds
12:54 PM 35.6 °F 25.5 °F 12.2 °F 38% 30.24 in 10.0 mi NW 17.3 mph 25.3 mph N/A   Mostly Cloudy
1:14 PM 35.6 °F 25.2 °F 15.8 °F 44% 30.24 in 10.0 mi NW 18.4 mph 27.6 mph N/A   Mostly Cloudy
1:33 PM 35.6 °F 23.7 °F 14.0 °F 41% 30.23 in 10.0 mi NW 24.2 mph 31.1 mph N/A   Scattered Clouds
1:54 PM 35.6 °F 24.2 °F 15.8 °F 44% 30.23 in 10.0 mi WNW 21.9 mph 31.1 mph N/A   Scattered Clouds
2:13 PM 35.6 °F 25.2 °F 15.8 °F 44% 30.22 in 10.0 mi NW 18.4 mph 32.2 mph N/A   Scattered Clouds
2:34 PM 35.6 °F 24.8 °F 15.8 °F 44% 30.21 in 10.0 mi NW 19.6 mph 29.9 mph N/A   Scattered Clouds
2:54 PM 35.6 °F 24.8 °F 14.0 °F 41% 30.20 in 10.0 mi NW 19.6 mph 28.8 mph N/A   Scattered Clouds
3:13 PM 35.6 °F 24.0 °F 12.2 °F 38% 30.20 in 10.0 mi NNW 23.0 mph 33.4 mph N/A   Scattered Clouds
3:34 PM 35.6 °F 25.2 °F 12.2 °F 38% 30.20 in 10.0 mi NNW 18.4 mph 26.5 mph N/A   Scattered Clouds
3:54 PM 35.6 °F 24.8 °F 10.4 °F 35% 30.19 in 10.0 mi NW 19.6 mph 26.5 mph N/A   Scattered Clouds
4:13 PM 35.6 °F 23.7 °F 10.4 °F 35% 30.19 in 10.0 mi NNW 24.2 mph 28.8 mph N/A   Scattered Clouds
4:34 PM 35.6 °F 24.8 °F 10.4 °F 35% 30.18 in 10.0 mi NW 19.6 mph 29.9 mph N/A   Clear
4:53 PM 33.8 °F 23.2 °F 10.4 °F 38% 30.18 in 10.0 mi NNW 17.3 mph - N/A   Clear
5:14 PM 33.8 °F 22.8 °F 10.4 °F 38% 30.18 in 10.0 mi NW 18.4 mph 28.8 mph N/A   Scattered Clouds
5:34 PM 33.8 °F 22.2 °F 10.4 °F 38% 30.17 in 10.0 mi NW 20.7 mph 27.6 mph N/A   Clear
5:53 PM 33.8 °F 22.5 °F 10.4 °F 38% 30.18 in 10.0 mi NNW 19.6 mph 25.3 mph N/A   Scattered Clouds
6:13 PM 33.8 °F 23.5 °F 10.4 °F 38% 30.18 in 10.0 mi NNW 16.1 mph 21.9 mph N/A   Scattered Clouds
6:34 PM 33.8 °F 21.9 °F 10.4 °F 38% 30.18 in 10.0 mi NNW 21.9 mph 26.5 mph N/A   Scattered Clouds
6:53 PM 33.8 °F 23.5 °F 10.4 °F 38% 30.17 in 10.0 mi NW 16.1 mph 23.0 mph N/A   Scattered Clouds
7:13 PM 33.8 °F 23.9 °F 10.4 °F 38% 30.17 in 10.0 mi NNW 15.0 mph 21.9 mph N/A   Scattered Clouds
7:34 PM 32.0 °F 22.5 °F 12.2 °F 44% 30.17 in 10.0 mi NNW 12.7 mph 18.4 mph N/A   Scattered Clouds
7:53 PM 30.2 °F 21.3 °F 12.2 °F 47% 30.17 in 10.0 mi NW 10.4 mph - N/A   Scattered Clouds
8:13 PM 30.2 °F 21.9 °F 14.0 °F 51% 30.17 in 10.0 mi NW 9.2 mph - N/A   Clear
8:34 PM 30.2 °F 21.9 °F 15.8 °F 55% 30.17 in 10.0 mi NW 9.2 mph - N/A   Clear
8:53 PM 30.2 °F 18.5 °F 15.8 °F 55% 30.17 in 10.0 mi NNW 17.3 mph 21.9 mph N/A   Scattered Clouds
9:13 PM 28.4 °F 15.1 °F 19.4 °F 69% 30.19 in 10.0 mi NNW 20.7 mph 27.6 mph N/A   Mostly Cloudy
9:34 PM 28.4 °F 16.6 °F 19.4 °F 69% 30.19 in 10.0 mi NNW 16.1 mph - N/A   Scattered Clouds
9:53 PM 28.4 °F 17.0 °F 19.4 °F 69% 30.19 in 10.0 mi NNW 15.0 mph 19.6 mph N/A   Clear
10:13 PM 26.6 °F 15.7 °F 19.4 °F 74% 30.20 in 10.0 mi NW 12.7 mph 17.3 mph N/A   Clear
10:34 PM 26.6 °F 16.8 °F 19.4 °F 74% 30.20 in 10.0 mi NW 10.4 mph 16.1 mph N/A   Clear
10:53 PM 26.6 °F 16.2 °F 21.2 °F 80% 30.21 in 10.0 mi NW 11.5 mph - N/A   Clear
11:13 PM 26.6 °F 16.2 °F 19.4 °F 74% 30.21 in 10.0 mi NW 11.5 mph - N/A   Clear
11:34 PM 26.6 °F 14.7 °F 19.4 °F 74% 30.21 in 10.0 mi NNW 15.0 mph 18.4 mph N/A   Scattered Clouds
11:53 PM 26.6 °F 15.7 °F 15.8 °F 64% 30.22 in 10.0 mi NNW 12.7 mph 18.4 mph N/A   Mostly Cloudy